Waarnemingen

Advertentie
Mijn weer
Leucate/Semaphore, Frankrijk (7666): temperatuur & dauwpunt: 13.07.2018 21:00:00 - 19.07.2018 21:00:00 (CEST)Leucate/Semaphore, Frankrijk (7666): windsnelheid & windstoten: 13.07.2018 21:00:00 - 19.07.2018 21:00:00 (CEST)Leucate/Semaphore, Frankrijk (7666): windrichting: 13.07.2018 21:00:00 - 19.07.2018 21:00:00 (CEST)Leucate/Semaphore, Frankrijk (7666): luchtdruk: 13.07.2018 21:00:00 - 19.07.2018 21:00:00 (CEST)Leucate/Semaphore, Frankrijk (7666): zicht: 13.07.2018 21:00:00 - 19.07.2018 21:00:00 (CEST)Leucate/Semaphore, Frankrijk (7666): neerslag: 13.07.2018 21:00:00 - 19.07.2018 21:00:00 (CEST)
Datum & Tijd tt [°C] td [°C] ff [km/u] ff [kn] fx [km/u] fx [kn] dd ppp [hPa] vv [km] rr [mm]
19.07.2018 21:00:00 27,0 15,4 16 9 26 14 ZZW 1012,5 - 0,0
19.07.2018 20:00:00 25,9 18,1 19 10 27 15 Z 1012,5 25 0,0
19.07.2018 19:00:00 25,3 19,4 19 10 25 14 Z 1012,7 - 0,0
19.07.2018 18:00:00 25,9 19,3 15 8 24 13 Z 1013,0 - 0,0
19.07.2018 17:00:00 25,5 19,9 18 10 26 14 Z 1013,3 - 0,0
19.07.2018 16:00:00 26,4 21,4 20 11 25 14 Z 1013,7 - 0,0
19.07.2018 15:00:00 28,0 19,8 15 8 16 9 ZO 1013,8 - 0,0
19.07.2018 14:00:00 28,0 20,0 7 4 13 7 OZO 1014,2 25 0,0
19.07.2018 13:00:00 27,9 18,0 6 4 14 7 NNO 1014,7 - 0,0
19.07.2018 12:00:00 29,0 17,2 10 5 26 14 N 1014,8 - 0,0
19.07.2018 11:00:00 28,2 17,4 15 8 29 16 NNW 1015,0 - 0,0
19.07.2018 10:00:00 26,7 16,3 15 8 26 14 NNW 1014,9 - 0,0
19.07.2018 09:00:00 24,1 16,6 11 6 24 13 NNW 1014,8 - 0,0
19.07.2018 08:00:00 21,7 16,2 14 8 24 13 NW 1014,7 20 0,0
19.07.2018 07:00:00 20,1 16,3 16 9 25 14 NNW 1014,4 - 0,0
19.07.2018 06:00:00 19,8 15,0 10 6 13 7 N 1014,4 - 0,0
19.07.2018 05:00:00 20,7 15,3 11 6 13 7 ZW 1014,0 20 0,0
19.07.2018 04:00:00 21,2 15,9 8 4 19 10 W 1013,9 - 0,0
19.07.2018 03:00:00 20,4 17,6 15 8 17 9 ZW 1013,9 - 0,0
19.07.2018 02:00:00 20,1 17,5 5 3 18 10 ZW 1014,3 - 0,0
19.07.2018 01:00:00 20,6 17,0 12 6 22 12 NNW 1014,3 - 0,0
19.07.2018 00:00:00 20,9 17,7 10 6 26 14 W 1015,1 - 0,0
18.07.2018 23:00:00 20,4 18,5 10 5 48 26 W 1015,9 - 0,0
18.07.2018 22:00:00 20,0 17,6 22 12 50 27 N 1015,8 - 3,5
18.07.2018 21:00:00 18,8 17,1 34 18 95 51 NNW 1015,6 - 7,2
18.07.2018 20:00:00 23,3 20,8 29 16 42 23 ZZO 1011,8 20 0,0
18.07.2018 19:00:00 23,8 19,3 14 8 32 17 ZO 1012,3 - 0,0
18.07.2018 18:00:00 24,4 18,6 18 10 23 13 ZO 1012,5 - 0,0
18.07.2018 17:00:00 24,5 18,7 19 10 23 12 ZZO 1013,2 20 0,0
18.07.2018 16:00:00 25,2 17,7 16 8 21 11 ZO 1013,9 - 0,0
18.07.2018 15:00:00 25,0 17,5 17 9 20 11 ZZO 1014,4 - 0,0
18.07.2018 14:00:00 25,7 17,4 15 8 18 10 ZZO 1014,8 - 0,0
18.07.2018 13:00:00 25,6 17,8 11 6 14 8 ZZO 1015,2 - 0,0
18.07.2018 12:00:00 25,4 18,8 8 4 12 6 Z 1015,6 - 0,0
18.07.2018 11:00:00 24,9 17,9 5 3 9 5 ZZO 1015,8 - 0,0
18.07.2018 10:00:00 24,3 17,5 5 3 8 4 ONO 1016,1 - 0,0
18.07.2018 09:00:00 25,0 15,9 3 1 13 7 ONO 1015,9 - 0,0
18.07.2018 08:00:00 22,5 16,1 8 4 11 6 NNW 1015,7 - 0,0
18.07.2018 07:00:00 21,0 16,2 9 5 12 6 NNW 1015,4 - 0,0
18.07.2018 06:00:00 22,2 15,1 5 3 13 7 ZW 1015,3 - 0,0
18.07.2018 05:00:00 21,7 16,6 13 7 17 9 ZW 1015,2 - 0,0
18.07.2018 04:00:00 22,5 14,6 5 3 23 12 WNW 1015,4 - 0,0
18.07.2018 03:00:00 23,6 14,6 13 7 29 16 WNW 1015,6 - 0,0
18.07.2018 02:00:00 24,0 14,7 16 9 32 18 NW 1015,7 - 0,0
18.07.2018 01:00:00 24,4 14,8 17 9 27 15 WNW 1016,1 - 0,0
18.07.2018 00:00:00 24,8 14,9 16 9 38 21 WNW 1016,0 - 0,0
17.07.2018 23:00:00 25,2 15,2 22 12 44 24 NW 1015,8 - 0,0
17.07.2018 22:00:00 25,5 15,2 27 14 49 26 NW 1015,3 - 0,0
17.07.2018 21:00:00 26,7 15,4 21 11 38 21 NW 1015,1 - 0,0
17.07.2018 20:00:00 28,6 15,2 20 11 37 20 WNW 1015,2 - 0,0
17.07.2018 19:00:00 29,6 15,0 19 11 39 21 NW 1015,0 - 0,0
17.07.2018 18:00:00 30,4 14,5 21 11 41 22 NW 1015,4 - 0,0
17.07.2018 17:00:00 30,5 14,2 23 12 45 24 NW 1015,7 - 0,0
17.07.2018 16:00:00 30,2 14,7 22 12 46 25 NW 1016,1 - 0,0
17.07.2018 15:00:00 29,6 14,6 26 14 49 27 NW 1016,5 - 0,0
17.07.2018 14:00:00 29,0 14,8 26 14 54 29 NW 1017,0 20 0,0
17.07.2018 13:00:00 27,5 14,2 29 15 62 33 NW 1017,1 - 0,0
17.07.2018 12:00:00 26,5 14,9 32 17 70 38 NW 1017,4 - 0,0
17.07.2018 11:00:00 25,2 14,6 33 18 69 37 NW 1017,3 25 0,0
17.07.2018 10:00:00 23,9 14,6 37 20 71 38 NW 1017,3 - 0,0
17.07.2018 09:00:00 22,7 15,3 30 16 72 39 NW 1017,6 - 0,0
17.07.2018 08:00:00 21,6 15,2 32 18 71 38 NW 1017,1 - 0,0
17.07.2018 07:00:00 20,7 15,3 37 20 67 36 NW 1016,9 - 0,0
17.07.2018 06:00:00 20,6 15,4 34 18 67 36 NW 1016,8 - 0,0
17.07.2018 05:00:00 21,2 15,3 36 19 77 42 NW 1016,3 15 0,0
17.07.2018 04:00:00 21,6 15,0 35 19 79 42 NW 1016,2 - 0,0
17.07.2018 03:00:00 22,0 15,4 36 20 68 37 NW 1016,5 - 0,0
17.07.2018 02:00:00 22,4 16,0 36 20 75 41 NW 1016,7 - 0,0
17.07.2018 01:00:00 22,9 16,0 34 18 68 37 NW 1016,7 - 0,0
17.07.2018 00:00:00 22,9 16,2 34 19 74 40 NW 1016,1 - 0,0
16.07.2018 23:00:00 22,8 15,6 32 17 73 40 NW 1015,7 - 0,0
16.07.2018 22:00:00 22,7 15,8 32 18 63 34 NW 1015,2 - 0,0
16.07.2018 21:00:00 23,0 15,8 35 19 74 40 NW 1015,1 - 0,0
16.07.2018 20:00:00 23,3 15,9 36 20 76 41 WNW 1014,0 25 0,0
16.07.2018 19:00:00 25,5 16,4 29 16 77 42 NW 1013,2 - 0,0
16.07.2018 18:00:00 25,5 16,4 26 14 68 37 NW 1012,4 - 0,0
16.07.2018 17:00:00 24,6 16,1 35 19 83 45 NW 1012,4 25 0,0
16.07.2018 16:00:00 25,1 15,1 42 23 81 44 NW 1011,6 - 0,0
16.07.2018 15:00:00 23,8 15,3 45 24 85 46 NW 1011,3 - 0,0
16.07.2018 14:00:00 21,8 15,2 44 24 71 38 NW 1011,9 - 0,0
16.07.2018 13:00:00 19,8 16,4 27 15 61 33 NW 1012,2 - 0,4
16.07.2018 12:00:00 18,3 16,3 31 17 64 34 NW 1012,6 - 2,0
16.07.2018 11:00:00 18,3 16,6 29 15 71 38 NW 1011,9 - 8,5
16.07.2018 10:00:00 21,6 19,2 24 13 45 25 NW 1011,0 - 1,0
16.07.2018 09:00:00 23,8 17,8 25 14 48 26 NW 1010,0 - 0,0
16.07.2018 08:00:00 23,1 17,6 15 8 33 18 NW 1010,3 - 0,0
16.07.2018 07:00:00 22,7 17,6 11 6 20 11 WNW 1011,4 - 0,0
16.07.2018 06:00:00 22,4 19,2 7 4 17 9 N 1010,7 - 0,0
16.07.2018 05:00:00 22,1 18,7 12 7 23 12 NNW 1011,8 - 0,0
16.07.2018 04:00:00 22,5 20,2 12 7 21 12 N 1012,0 - 0,0
16.07.2018 03:00:00 23,3 21,9 9 5 16 9 N 1012,5 - 0,0
16.07.2018 02:00:00 22,8 20,7 9 5 24 13 N 1012,6 - 0,0
16.07.2018 01:00:00 23,6 22,4 9 5 18 10 N 1012,7 - 0,0
16.07.2018 00:00:00 23,7 22,0 4 2 11 6 NO 1012,4 - 0,0
15.07.2018 23:00:00 23,8 21,5 3 2 7 4 NO 1012,3 - 0,0
15.07.2018 22:00:00 24,0 21,5 4 2 8 4 ONO 1011,8 - 0,0
15.07.2018 21:00:00 24,4 21,7 4 2 10 5 ONO 1011,7 - 0,0
15.07.2018 20:00:00 25,1 21,6 4 2 8 4 ONO 1011,6 15 0,0
15.07.2018 19:00:00 25,6 21,5 4 2 10 5 ONO 1011,8 - 0,0
15.07.2018 18:00:00 25,5 21,6 9 5 17 9 ZO 1012,3 20 0,0
15.07.2018 17:00:00 25,5 21,0 14 8 17 9 ZO 1012,6 - 0,0
15.07.2018 16:00:00 26,1 20,2 8 4 13 7 O 1013,1 - 0,0
15.07.2018 15:00:00 26,0 20,1 8 5 18 10 O 1013,7 - 0,0
15.07.2018 14:00:00 26,9 19,5 7 4 17 9 ONO 1014,2 - 0,0
15.07.2018 13:00:00 26,2 18,1 8 4 13 7 ONO 1015,0 - 0,0
15.07.2018 12:00:00 26,4 16,3 6 3 10 6 ONO 1015,2 - 0,0
15.07.2018 11:00:00 26,4 17,2 6 3 9 5 O 1015,3 - 0,0
15.07.2018 10:00:00 25,1 15,1 5 3 8 4 ZZO 1015,3 - 0,0
15.07.2018 09:00:00 25,1 15,4 3 2 10 5 ZO 1015,1 - 0,0
15.07.2018 08:00:00 24,5 15,4 4 2 9 5 NW 1014,5 - 0,0
15.07.2018 07:00:00 22,2 15,8 7 4 16 9 N 1014,3 - 0,0
15.07.2018 06:00:00 22,7 15,0 7 4 28 15 N 1014,4 - 0,0
15.07.2018 05:00:00 23,6 14,9 16 9 50 27 NW 1014,1 25 0,0
15.07.2018 04:00:00 23,8 16,1 22 12 47 26 NW 1014,3 - 0,0
15.07.2018 03:00:00 21,8 17,8 10 5 14 8 NW 1014,0 - 0,0
15.07.2018 02:00:00 22,6 18,6 4 2 12 6 NNW 1014,2 - 0,0
15.07.2018 01:00:00 23,2 19,4 7 4 11 6 ZZW 1014,4 - 0,0
15.07.2018 00:00:00 23,5 17,9 6 3 11 6 ZW 1014,3 - 0,0
14.07.2018 23:00:00 24,4 17,4 8 4 13 7 Z 1014,5 - 0,0
14.07.2018 22:00:00 24,6 16,3 10 5 19 10 Z 1014,1 - 0,0
14.07.2018 21:00:00 25,4 15,4 13 7 19 10 Z 1013,8 - 0,0
14.07.2018 20:00:00 25,7 16,5 11 6 18 10 Z 1014,0 - 0,0
14.07.2018 19:00:00 26,1 15,8 14 8 19 10 Z 1014,6 - 0,0
14.07.2018 18:00:00 24,9 19,7 9 5 15 8 Z 1014,5 - 0,0
14.07.2018 17:00:00 25,8 19,9 9 5 14 8 ZZO 1014,7 20 0,0
14.07.2018 16:00:00 26,1 20,2 11 6 16 9 ZO 1015,0 - 0,0
14.07.2018 15:00:00 25,5 20,1 11 6 18 10 ZZO 1015,3 - 0,0
14.07.2018 14:00:00 26,1 19,2 10 6 16 8 ZO 1015,7 20 0,0
14.07.2018 13:00:00 26,5 18,4 13 7 19 10 ZO 1016,2 - 0,0
14.07.2018 12:00:00 25,9 20,2 10 5 19 10 ZZO 1016,3 - 0,0
14.07.2018 11:00:00 26,3 19,7 6 3 17 9 O 1016,4 - 0,0
14.07.2018 10:00:00 26,7 17,7 11 6 22 12 N 1016,3 - 0,0
14.07.2018 09:00:00 24,3 17,5 14 7 27 15 NNW 1016,2 - 0,0
14.07.2018 08:00:00 24,4 17,1 12 7 21 11 NNW 1015,9 20 0,0
14.07.2018 07:00:00 23,4 17,4 3 2 7 4 W 1015,7 - 0,0
14.07.2018 06:00:00 23,6 16,6 5 3 9 5 NW 1015,7 - 0,0
14.07.2018 05:00:00 23,8 16,8 8 4 13 7 NNW 1016,1 15 0,0
14.07.2018 04:00:00 24,0 16,8 8 4 23 12 NW 1016,3 - 0,0
14.07.2018 03:00:00 23,9 16,7 16 8 33 18 NNW 1016,5 - 0,0
14.07.2018 02:00:00 23,0 19,2 20 11 29 16 NNW 1016,8 - 0,0
14.07.2018 01:00:00 23,9 17,4 10 5 14 7 NW 1016,2 - 0,0
14.07.2018 00:00:00 24,1 19,4 4 2 11 6 Z 1015,8 - 0,0
13.07.2018 23:00:00 24,2 18,2 11 6 14 8 Z 1015,9 - 0,0
13.07.2018 22:00:00 24,6 16,6 5 3 22 12 Z 1015,9 - 0,0
13.07.2018 21:00:00 25,5 13,7 14 7 29 16 Z 1015,6 - 0,0

tt = temperatuur
td = dauwpunt
ff = windsnelheid
fx = windstoten
dd = windrichting
ppp = luchtdruk
vv = zicht
rr = neerslag

Weerstations in de omgeving